TimeCST,TemperatureF,Dew PointF,Humidity,Sea Level PressureIn,VisibilityMPH,Wind Direction,Wind SpeedMPH,Gust SpeedMPH,PrecipitationIn,Events,Conditions,WindDirDegrees,DateUTC
12:15 AM,52.9,50.0,90,30.01,10.0,Calm,Calm,-,N/A,,Scattered Clouds,0,2012-12-04 06:15:00
12:35 AM,52.5,50.2,92,30.01,10.0,Calm,Calm,-,N/A,,Scattered Clouds,0,2012-12-04 06:35:00
12:55 AM,51.4,50.2,95,30.01,10.0,NNW,3.5,-,N/A,,Scattered Clouds,330,2012-12-04 06:55:00
1:15 AM,51.3,49.6,94,30.01,10.0,North,4.6,-,N/A,,Scattered Clouds,350,2012-12-04 07:15:00
1:35 AM,51.3,49.5,94,30.02,10.0,NNW,4.6,-,N/A,,Clear,330,2012-12-04 07:35:00
1:55 AM,51.8,48.2,88,30.05,10.0,NNW,4.6,-,N/A,,Scattered Clouds,330,2012-12-04 07:55:00
2:15 AM,51.4,46.6,83,30.06,10.0,North,5.8,-,N/A,,Scattered Clouds,350,2012-12-04 08:15:00
2:35 AM,50.9,44.1,77,30.07,10.0,NNW,5.8,-,N/A,,Scattered Clouds,340,2012-12-04 08:35:00
2:55 AM,50.4,43.5,77,30.08,10.0,NNW,5.8,-,N/A,,Mostly Cloudy,330,2012-12-04 08:55:00
3:15 AM,50.4,42.8,75,30.08,10.0,NNW,5.8,-,N/A,,Scattered Clouds,330,2012-12-04 09:15:00
3:35 AM,50.0,42.4,75,30.09,10.0,NNW,6.9,-,N/A,,Clear,330,2012-12-04 09:35:00
3:55 AM,49.6,41.9,75,30.09,10.0,NNW,5.8,-,N/A,,Clear,330,2012-12-04 09:55:00
4:15 AM,49.3,41.5,75,30.09,10.0,NNW,6.9,-,N/A,,Clear,340,2012-12-04 10:15:00
4:35 AM,49.1,40.6,73,30.10,10.0,NNW,6.9,-,N/A,,Clear,330,2012-12-04 10:35:00
4:55 AM,48.7,39.9,72,30.11,10.0,NW,6.9,-,0.01,,Clear,320,2012-12-04 10:55:00
5:15 AM,48.2,39.2,71,30.12,10.0,NW,4.6,-,N/A,,Clear,320,2012-12-04 11:15:00
5:35 AM,47.8,38.7,70,30.13,10.0,NW,3.5,-,N/A,,Clear,320,2012-12-04 11:35:00
5:55 AM,47.8,37.9,69,30.13,10.0,NW,4.6,-,N/A,,Clear,310,2012-12-04 11:55:00
6:15 AM,46.9,37.6,70,30.14,10.0,NW,4.6,-,0.01,,Clear,320,2012-12-04 12:15:00
6:35 AM,46.4,37.4,71,30.15,10.0,Calm,Calm,-,0.01,,Clear,0,2012-12-04 12:35:00
6:55 AM,45.7,37.2,72,30.16,10.0,NW,4.6,-,0.01,,Clear,320,2012-12-04 12:55:00
7:15 AM,45.3,37.0,73,30.17,10.0,NW,3.5,-,N/A,,Clear,320,2012-12-04 13:15:00
7:35 AM,45.0,36.7,73,30.18,10.0,NW,4.6,-,N/A,,Clear,320,2012-12-04 13:35:00
7:55 AM,44.6,36.5,73,30.18,10.0,NNW,5.8,-,N/A,,Clear,330,2012-12-04 13:55:00
8:15 AM,44.2,36.9,75,30.18,10.0,NNW,5.8,-,N/A,,Clear,330,2012-12-04 14:15:00
8:55 AM,45.0,36.7,73,30.22,10.0,NNW,4.6,-,0.01,,Clear,330,2012-12-04 14:55:00
9:15 AM,44.8,36.9,74,30.23,10.0,NW,4.6,-,N/A,,Clear,320,2012-12-04 15:15:00
9:35 AM,45.5,36.9,72,30.23,10.0,NW,4.6,-,N/A,,Clear,320,2012-12-04 15:35:00
9:55 AM,46.0,36.7,70,30.23,10.0,NW,4.6,-,N/A,,Clear,320,2012-12-04 15:55:00
10:15 AM,47.1,36.7,67,30.23,10.0,NW,3.5,-,N/A,,Clear,320,2012-12-04 16:15:00
10:35 AM,48.6,36.9,64,30.24,10.0,NNW,4.6,-,N/A,,Clear,330,2012-12-04 16:35:00
10:55 AM,49.5,36.7,61,30.24,10.0,NW,5.8,-,N/A,,Clear,310,2012-12-04 16:55:00
11:15 AM,50.7,37.2,60,30.23,10.0,NNW,3.5,-,N/A,,Clear,330,2012-12-04 17:15:00
11:35 AM,52.5,37.0,56,30.23,10.0,NW,3.5,-,N/A,,Clear,320,2012-12-04 17:35:00
11:55 AM,54.0,36.0,51,30.23,10.0,North,3.5,-,N/A,,Clear,360,2012-12-04 17:55:00
12:15 PM,55.2,34.7,46,30.22,10.0,NW,4.6,-,N/A,,Clear,310,2012-12-04 18:15:00
12:35 PM,56.1,35.4,46,30.21,10.0,NNW,3.5,-,N/A,,Clear,330,2012-12-04 18:35:00
12:55 PM,57.2,34.2,42,30.23,10.0,WNW,4.6,-,N/A,,Clear,300,2012-12-04 18:55:00
1:15 PM,57.9,33.1,39,30.22,10.0,NNW,4.6,-,N/A,,Clear,340,2012-12-04 19:15:00
1:35 PM,58.6,32.7,38,30.22,10.0,NW,6.9,-,N/A,,Clear,320,2012-12-04 19:35:00
1:55 PM,59.2,30.7,34,30.22,10.0,NNW,5.8,-,N/A,,Clear,330,2012-12-04 19:55:00
2:15 PM,59.2,29.7,33,30.22,10.0,NW,4.6,-,N/A,,Clear,320,2012-12-04 20:15:00
2:35 PM,59.2,30.9,34,30.22,10.0,Calm,Calm,-,N/A,,Clear,0,2012-12-04 20:35:00
2:55 PM,59.0,30.7,34,30.23,10.0,WNW,3.5,-,N/A,,Clear,290,2012-12-04 20:55:00
3:15 PM,59.0,30.9,35,30.23,10.0,WNW,5.8,-,N/A,,Clear,300,2012-12-04 21:15:00
3:35 PM,58.8,30.2,34,30.24,10.0,NW,3.5,-,N/A,,Clear,320,2012-12-04 21:35:00
3:55 PM,58.3,29.5,33,30.24,10.0,NNW,3.5,-,N/A,,Clear,330,2012-12-04 21:55:00
4:15 PM,58.1,29.1,33,30.24,10.0,Calm,Calm,-,N/A,,Clear,0,2012-12-04 22:15:00
4:35 PM,57.6,28.4,33,30.25,10.0,Calm,Calm,-,N/A,,Clear,0,2012-12-04 22:35:00
4:55 PM,56.3,28.4,34,30.25,10.0,Calm,Calm,-,N/A,,Clear,0,2012-12-04 22:55:00
5:35 PM,53.2,28.8,39,30.26,10.0,Calm,Calm,-,N/A,,Clear,0,2012-12-04 23:35:00
5:55 PM,51.8,30.7,45,30.27,10.0,Calm,Calm,-,N/A,,Clear,0,2012-12-04 23:55:00
6:15 PM,49.6,31.1,49,30.27,10.0,Calm,Calm,-,N/A,,Clear,0,2012-12-05 00:15:00
6:35 PM,48.7,31.3,51,30.27,10.0,Calm,Calm,-,N/A,,Clear,0,2012-12-05 00:35:00
6:55 PM,48.0,30.6,51,30.27,10.0,Calm,Calm,-,N/A,,Clear,0,2012-12-05 00:55:00
7:15 PM,46.9,31.1,54,30.28,10.0,Calm,Calm,-,N/A,,Clear,0,2012-12-05 01:15:00
7:55 PM,45.1,32.0,60,30.28,10.0,Calm,Calm,-,N/A,,Clear,0,2012-12-05 01:55:00
8:15 PM,44.4,32.0,62,30.28,10.0,SW,3.5,-,N/A,,Clear,220,2012-12-05 02:15:00
8:35 PM,43.7,32.2,64,30.28,10.0,SSW,3.5,-,N/A,,Clear,200,2012-12-05 02:35:00
8:55 PM,42.6,32.7,68,30.29,10.0,Calm,Calm,-,N/A,,Clear,0,2012-12-05 02:55:00
9:15 PM,41.5,33.4,73,30.29,10.0,Calm,Calm,-,N/A,,Clear,0,2012-12-05 03:15:00
9:35 PM,40.6,34.0,77,30.29,10.0,Calm,Calm,-,N/A,,Clear,0,2012-12-05 03:35:00
9:55 PM,41.0,33.6,75,30.29,10.0,South,3.5,-,N/A,,Clear,190,2012-12-05 03:55:00
10:15 PM,40.6,32.2,72,30.30,10.0,SSW,3.5,-,N/A,,Clear,200,2012-12-05 04:15:00
10:35 PM,39.0,32.2,76,30.30,10.0,Calm,Calm,-,N/A,,Clear,0,2012-12-05 04:35:00
10:55 PM,38.3,32.5,80,30.30,10.0,Calm,Calm,-,N/A,,Clear,0,2012-12-05 04:55:00
11:15 PM,38.1,32.7,81,30.30,10.0,Calm,Calm,-,N/A,,Clear,0,2012-12-05 05:15:00
11:35 PM,37.6,32.4,81,30.30,10.0,SSW,3.5,-,N/A,,Clear,210,2012-12-05 05:35:00
11:55 PM,37.2,31.8,81,30.30,10.0,Calm,Calm,-,N/A,,Clear,0,2012-12-05 05:55:00